Weather in Balpyk bi

Kazakhstan     44°54′02″N   78°13′20″E
В апреле 2022 года жителям России запретили посещать сайт meteo.paraplan.net по решению Генеральной прокуратуры. Аудитория сайта уменьшилась в 10 раз. Владельцы сайта не видят смысла в поддержке погодного сервера в таких условиях. Сайт будет закрыт в октябре.
temp.,
°C
wind,
m/s
gust,
m/s
humid.,
%
clouds,
%
prec.,
mm/h
press.,
hPa
HPBL,
m
3 october, mon
mon300:00+5ene33320 0.0 102220
03:00+5ene33280 0.0 102016
06:00+5ene23230 0.0 102013
09:00+11ne221495 0.0 1018183
12:00+18n2295 0.0 1017701
15:00+20nne651098 0.0 1015956
18:00+16nne461542 0.0 1016114
21:00+10nne1125100 0.0 101911
4 october, tue
tue400:00+9ene1126100 0.0 101910
03:00+9w0124100 0.0 102010
06:00+9ne0124100 0.0 102110
09:00+13s112080 0.0 1022212
12:00+19wnw331527 0.0 1021783
15:00+21nnw331653 0.0 10201227
18:00+16nne4721100 0.0 1021157
21:00+11ne22285 0.0 102324
5 october, wed
wed500:00+9ne223385 0.0 102414
03:00+9ne223667 0.0 102517
06:00+6ne22385 0.0 102612
09:00+12ne222813 0.0 1027222
12:00+18n43205 0.0 1026725
15:00+20nne66202 0.0 10251121
18:00+17nne610220 0.0 1026315
21:00+12ne49250 0.0 1027164
6 october, thu
thu600:00+9ne23310 0.0 102835
03:00+7ene22340 0.0 102819
06:00+7ne22410 0.0 102716
09:00+13ene22290 0.0 1026174
12:00+20nne44190 0.0 1024732
15:00+23nne66170 0.0 10221219
18:00+19nne610190 0.0 1022261
21:00+13ne36250 0.0 102389
7 october, fri
fri700:00+11e22320 0.0 102317
03:00+10ene22350 0.0 102314
06:00+9ene22367 0.0 102312
09:00+15e22250 0.0 1022172
12:00+22n32150 0.0 1019827
15:00+24nne65110 0.0 10181371
18:00+20nne58180 0.0 1018143
21:00+13ne22320 0.0 102011